Regional Weather Roundup
Issued by NWS Kansas City/Pleasant Hill, MO

Home | Current Version | Previous Version | Text Only | Print | Product List | Glossary On
Versions: 1 2 3 4 5 6 7 8 9 10 11 12 13 14 15 16 17 18 19 20 21 22 23 24 25 26 27
000
ASUS43 KEAX 230910
RWREAX

WEATHER ROUNDUP FOR EASTERN KANSAS AND NORTHWEST MISSOURI
NATIONAL WEATHER SERVICE KANSAS CITY/PLEASANT HILL MO
400 AM CDT TUE AUG 23 2016

KSZ040-057-103>105-MOZ028-029-037-043-231000-
...KANSAS CITY METROPOLITAN AREA...

CITY           SKY/WX    TMP DP  RH WIND       PRES   REMARKS
K.C. INTL      CLEAR     65  60  84 S9        30.04S
K.C. DOWNTOWN  CLEAR     71  63  75 S8        30.04F
LEES SUMMIT    CLEAR     66  61  84 S9        30.07S
OLATHE - IXD   CLEAR     66  63  90 S8        30.06S
OLATHE - OJC   CLEAR     63  61  93 S7        30.06S
LAWRENCE       CLEAR     65  62  90 SE7       30.03F

$$

MOZ001>008-011>017-020>025-030>033-038>040-044>046-053-054-231000-
...NORTHERN AND CENTRAL MISSOURI...

CITY           SKY/WX    TMP DP  RH WIND       PRES   REMARKS
ST. JOSEPH     CLEAR     66  61  84 S7        30.03S
MOSBY          SUNNY     63  61  94 CALM      30.05F
WHITEMAN AFB   CLEAR     64  64 100 S6        30.07S
CLINTON        MOCLDY    66  63  88 CALM      30.09S
SEDALIA        CLEAR     63  60  90 S6        30.10F
WARSAW         NOT AVBL
CHILLICOTHE      N/A     66  61  84 S3        30.08S
KIRKSVILLE     CLEAR     58  56  93 S6        30.10F

$$

MOZ041-047>049-056>058-063>065-088>090-097-231000-
...EASTERN AND SOUTHERN MISSOURI...

CITY           SKY/WX    TMP DP  RH WIND       PRES   REMARKS
ST. LOUIS INTL PTCLDY    69  60  73 SE8       30.16S
SPIRIT OF STL  CLEAR     62  60  93 CALM      30.14F
COLUMBIA       CLEAR     64  61  90 SE8       30.12S
JEFFERSON CITY CLEAR     64  61  90 E3        30.11F
ROLLA          CLOUDY    66  59  78 SE8       30.13F
OSAGE BEACH    MOCLDY    65  61  87 SE3       30.12F
SPRINGFIELD    CLOUDY    71  64  78 S9        30.11S
BRANSON        MOCLDY    66  66 100 CALM      30.14S
JOPLIN         CLOUDY    72  67  84 S12       30.08S
WEST PLAINS    CLOUDY    69  61  75 CALM      30.17S

$$

IAZ060-094-KSZ022-034>040-054-083-096-NEZ052-066-093-231000-
...KANSAS...SOUTHEAST NEBRASKA AND IOWA...

CITY           SKY/WX    TMP DP  RH WIND       PRES   REMARKS
TOPEKA         CLEAR     69  64  84 S6        30.01F
MANHATTAN      CLEAR     72  67  84 S8        29.97F
EMPORIA        CLOUDY    71  68  90 S17G24    30.02F
CHANUTE        CLOUDY    71  67  87 S8        30.04F
WICHITA        MOCLDY    72  70  93 S12       29.99F
OMAHA          MOCLDY    71  60  68 S15       29.96S
LINCOLN        CLEAR     69  62  78 S10       29.94S
FALLS CITY     CLEAR     67  61  81 S10       29.99S
LAMONI         CLEAR     62  60  93 S7        30.05F
DES MOINES     PTCLDY    66  60  81 S9        30.03S

$$





USA.gov is the U.S. government's official web portal to all federal, state and local government web resources and services.